weather.gov     
National Weather Service

Regional Weather Roundup
NWS Homepage
This page is being discontinued on March 12, 2014.
The same data is available at this site. Please update your bookmarks.
Thank you, and we apologize for the inconvenience.
Please send an email to SR-SRH.Webmaster@noaa.gov with any concerns.


Current Version
Previous Version:    01  02  03  04  05  06  07  08  09  10  11  12  13  14  15  16  17  18  19  20  21  22  23  24  25  26  
[Printable]
803
ASUS46 KPQR 010310
RWROR

OREGON REGIONAL WEATHER ROUNDUP
NATIONAL WEATHER SERVICE PORTLAND OR
700 PM PST SAT JAN 31 2015

NOTE: "FAIR" INDICATES FEW OR NO CLOUDS BELOW 12,000 FEET WITH
NO SIGNIFICANT WEATHER AND/OR OBSTRUCTIONS TO VISIBILITY.

ORZ001>013-010400-
NORTHWEST OREGON


CITY           SKY/WX    TMP DP  RH WIND       PRES   REMARKS
ASTORIA        CLOUDY    45  40  82 E6        30.07F
NEWPORT        CLOUDY    52  39  62 E10       30.09S
PORTLAND       CLOUDY    43  35  73 E12       30.14S
VANCOUVER WA   MOCLDY    43  33  68 SE3       30.14S
SCAPPOOSE      MOCLDY    38  37  97 CALM      30.14R
HILLSBORO      MOCLDY    44  36  73 SE3       30.13S
AURORA         MOCLDY    42  34  73 N7        30.13S
MCMINNVILLE    MOCLDY    45  38  76 NE3       30.13S
SALEM          MOCLDY    42  38  85 SE7       30.11S
CORVALLIS      CLOUDY    41  37  87 CALM      30.14S
EUGENE         CLOUDY    41  38  89 N3        30.14R FOG
$$

ORZ021-028-010400-
SOUTHWEST OREGON


CITY           SKY/WX    TMP DP  RH WIND       PRES   REMARKS
NORTH BEND     MOCLDY    52  48  87 CALM      30.06R
BROOKINGS      PTCLDY    53  42  66 CALM      30.07R
ROSEBURG       PTCLDY    48  42  80 CALM      30.09R
SEXTON SUMMIT  PTCLDY    52  20  28 SE8       30.11S
MEDFORD        CLEAR     46  38  73 CALM      30.10R
$$

ORZ014>016-041-010400-
COLUMBIA GORGE


CITY           SKY/WX    TMP DP  RH WIND       PRES   REMARKS
TROUTDALE      CLOUDY    43  33  68 E24G31    30.13S
THE DALLES     CLOUDY    40  32  73 E8        30.33S WCI  34
$$

ORZ029>031-041-044-049-050-061>064-502-503-505>511-010400-
EASTERN OREGON


CITY           SKY/WX    TMP DP  RH WIND       PRES   REMARKS
REDMOND        CLOUDY    31  30  96 W7        30.19R WCI  24
BEND           MOCLDY    30  28  93 CALM      30.18S
PRINEVILLE     MOCLDY    32  32 100 W6        30.19R WCI  26
KLAMATH FALLS  CLEAR     32  23  69 CALM      30.16S
LAKEVIEW       CLEAR     32  23  69 N5        30.19S WCI  27
HERMISTON      CLOUDY    38  32  79 NE8       30.32S WCI  32
PENDLETON      CLOUDY    34  31  88 NE6       30.27S WCI  29
JOHN DAY       PTCLDY    36  31  83 SE3       30.19S
MEACHAM        CLOUDY    30  27  88 CALM      30.17F
LA GRANDE      MOCLDY    36  25  64 N3        30.19R
BAKER CITY     MOCLDY    31  26  82 CALM      30.19
BURNS          MOCLDY    30  28  92 CALM      30.18S
ROME             N/A     34  24  67 SE10      30.16S WCI  26
ONTARIO        PTCLDY    38  30  73 NW3       30.19R
$$




U.S. Dept. of Commerce
NOAA National Weather Service
1325 East West Highway
Silver Spring, MD 20910
E-mail: w-nws.webmaster@noaa.gov
Page last modified: May 16, 2007
NATIONAL WEATHER SERVICE: for Safety, for Work, for Fun - FOR LIFE